WA9AFM-10 Weather Reports


Display with metric or nautical units.
time (UTC)temp
F
wind
direction
speed
MPH
gust
MPH
rain 1hr
in
rain 24hr
in
rain mn
in
humidity
%
barometer
mb
20260510064147 60 205 4.0 0.0 0.00 0.00 0.00 97 1008.0
20260510061149 60 166 0.0 0.0 0.00 0.00 0.00 97 1010.0
20260510054148 61 200 3.0 0.0 0.00 0.00 0.00 96 1008.6
20260510051148 62 258 3.0 0.0 0.00 0.00 0.00 95 1005.9
20260510044148 63 232 0.0 0.0 0.00 0.00 0.00 91 1009.0
20260510041148 71 92 0.0 0.0 0.00 0.00 0.00 63 1008.6
20260510034149 75 181 0.0 0.0 0.00 0.00 0.00 58 1004.0
20260510031149 75 286 6.0 0.0 0.00 0.00 0.00 56 1003.0
20260510024147 75 339 3.0 0.0 0.00 0.00 0.00 54 1004.6
20260510021148 76 317 0.0 0.0 0.00 0.00 0.00 51 1003.6
20260510014149 77 300 0.0 0.0 0.00 0.00 0.00 51 1002.7
20260510011149 79 285 0.0 0.0 0.00 0.00 0.00 48 1002.5
20260510004149 80 329 0.0 0.0 0.00 0.00 0.00 45 1002.4
20260510001149 81 343 2.0 0.0 0.00 0.00 0.00 42 1002.4
20260509234148 83 357 1.0 0.0 0.00 0.00 0.00 42 1002.5
20260509224149 87 24 0.0 0.0 0.00 0.00 0.00 40 1003.2
20260509214147 88 353 1.0 0.0 0.00 0.00 0.00 38 1003.3
20260509211148 87 327 4.0 0.0 0.00 0.00 0.00 37 1003.8
20260509204148 86 312 1.0 0.0 0.00 0.00 0.00 38 1004.0
20260509201149 86 321 0.0 0.0 0.00 0.00 0.00 39 1004.4
20260509194149 86 244 0.0 0.0 0.00 0.00 0.00 37 1004.7
20260509191149 86 238 3.0 0.0 0.00 0.00 0.00 37 1005.1
20260509184148 85 51 0.0 0.0 0.00 0.00 0.00 41 1005.4
20260509181148 84 336 0.0 0.0 0.00 0.00 0.00 41 1005.8
20260509174149 83 59 0.0 0.0 0.00 0.00 0.00 46 1006.2
20260509164148 79 312 0.0 0.0 0.00 0.00 0.00 53 1006.7
20260509161148 77 327 2.0 0.0 0.00 0.00 0.00 65 1006.8
20260509154222 75 258 1.0 0.0 0.00 0.00 0.00 67 1006.5
20260509154149 75 258 1.0 0.0 0.00 0.00 0.00 67 1006.5
20260509131424 62 315 0.0 0.0 0.00 0.00 0.00 99 1006.2
20260509131152 62 315 0.0 0.0 0.00 0.00 0.00 99 1006.2
20260509121302 54 314 0.0 0.0 0.00 0.00 0.00 98 1005.7
20260509121148 54 314 0.0 0.0 0.00 0.00 0.00 98 1005.7
20260509114150 54 314 0.0 0.0 0.00 0.00 0.00 98 1005.3
20260509111242 54 314 0.0 0.0 0.00 0.00 0.00 98 1005.0
20260509111149 54 314 0.0 0.0 0.00 0.00 0.00 98 1005.0
20260509104223 55 314 0.0 0.0 0.00 0.00 0.00 98 1004.9
20260509104148 55 314 0.0 0.0 0.00 0.00 0.00 98 1004.9
20260509101230 56 314 0.0 0.0 0.00 0.00 0.00 98 1005.3
20260509101148 56 314 0.0 0.0 0.00 0.00 0.00 98 1005.3
20260509091149 56 314 0.0 0.0 0.00 0.00 0.00 98 1005.4
20260509084148 56 314 0.0 0.0 0.00 0.00 0.00 98 1005.2
20260509081148 57 318 0.0 0.0 0.00 0.00 0.00 98 1005.5
20260509074149 57 317 0.0 0.0 0.00 0.00 0.00 98 1005.8